Weather History for Montreal Mirabel, QC

Change the Weather History Date:

Tuesday, June 10, 2014

  Actual Average Record
Temperature  
Mean Temperature 68 °F -  
Max Temperature 75 °F 70 °F 89 °F (1997)
Min Temperature 60 °F 51 °F 46 °F (2012)
Cooling Degree Days 2    
Growing Degree Days 18 (Base 50)    
Moisture  
Dew Point 50 °F    
Average Humidity 55    
Maximum Humidity 77    
Minimum Humidity 45    
Precipitation  
Precipitation 0.00 in - - ()
Sea Level Pressure  
Sea Level Pressure 30.04 in    
Wind  
Wind Speed 5 mph ()    
Max Wind Speed 14 mph    
Max Gust Speed 18 mph    
Averages and records for this station are not official NWS values.
T = Trace of Precipitation, MM = Missing Value Source: Averaged Metar Reports

Daily Weather History Graph

Daily Weather History Graph

Search for Another Location

Airport:

Trip Planner

Search our weather history database for the weather conditions in past years. The results will help you decide how hot, cold, wet, or windy it might be!

Date:

Astronomy

Jun. 10, 2014 Rise Set
Actual Time 5:06 AM EDT 8:44 PM EDT
Civil Twilight 4:28 AM EDT 9:22 PM EDT
Nautical Twilight 3:38 AM EDT 10:13 PM EDT
Astronomical Twilight 2:30 AM EDT 11:21 PM EDT
Moon 6:00 PM EDT (6/10) 3:19 AM EDT (6/10)
Length of Visible Light 16h 53m
Length of Day
15h 38m
Waxing Gibbous, 92% of the Moon is Illuminated
Jun 10
Waxing Gibbous
Jun 13
Full
Jun 19
Last Quarter
Jun 27
New
Jul 5
First Quarter

Hourly Weather History & Observations

Time (EDT) Temp. Dew Point Humidity Pressure Visibility Wind Dir Wind Speed Gust Speed Precip Events Conditions
12:00 AM 66.2 °F 46.4 °F 49% 30.00 in 25.0 mi Calm Calm - N/A   Scattered Clouds
1:00 AM 64.4 °F 44.6 °F 49% 29.99 in 25.0 mi ENE 3.5 mph - N/A   Mostly Cloudy
2:00 AM 62.6 °F 42.8 °F 48% 29.97 in 25.0 mi NNE 3.5 mph - N/A   Mostly Cloudy
3:00 AM 64.4 °F 42.8 °F 45% 29.99 in 25.0 mi NE 4.6 mph - N/A   Mostly Cloudy
4:00 AM 64.4 °F 42.8 °F 45% 29.99 in 25.0 mi NE 3.5 mph - N/A   Mostly Cloudy
5:00 AM 62.6 °F 44.6 °F 52% 29.99 in 25.0 mi NE 5.8 mph - N/A   Overcast
5:42 AM 62.6 °F 46.4 °F 55% 30.01 in 25.0 mi Variable 4.6 mph - N/A Rain Light Rain Showers
6:00 AM 62.6 °F 44.6 °F 52% 30.01 in 25.0 mi NNE 6.9 mph - N/A Rain Light Rain Showers
7:00 AM 60.8 °F 46.4 °F 59% 30.03 in 25.0 mi East 4.6 mph - N/A Rain Light Rain Showers
8:00 AM 60.8 °F 48.2 °F 63% 30.04 in 25.0 mi North 4.6 mph - N/A   Overcast
9:00 AM 62.6 °F 48.2 °F 59% 30.04 in 35.0 mi ENE 6.9 mph - N/A   Mostly Cloudy
10:00 AM 66.2 °F 50.0 °F 56% 30.04 in 35.0 mi ENE 9.2 mph - N/A   Mostly Cloudy
11:00 AM 68.0 °F 50.0 °F 52% 30.05 in 45.0 mi ENE 9.2 mph - N/A   Mostly Cloudy
12:00 PM 71.6 °F 51.8 °F 50% 30.04 in 35.0 mi East 11.5 mph 17.3 mph N/A   Mostly Cloudy
1:00 PM 73.4 °F 53.6 °F 50% 30.04 in 35.0 mi NE 8.1 mph 17.3 mph N/A   Scattered Clouds
2:00 PM 75.2 °F 53.6 °F 47% 30.04 in 45.0 mi ENE 9.2 mph 18.4 mph N/A   Partly Cloudy
3:00 PM 75.2 °F 53.6 °F 47% 30.03 in 45.0 mi East 13.8 mph - N/A   Mostly Cloudy
4:00 PM 73.4 °F 55.4 °F 53% 30.05 in 45.0 mi East 9.2 mph 18.4 mph N/A   Mostly Cloudy
5:00 PM 73.4 °F 55.4 °F 53% 30.06 in 45.0 mi East 8.1 mph 17.3 mph N/A   Mostly Cloudy
6:00 PM 73.4 °F 53.6 °F 50% 30.06 in 45.0 mi East 6.9 mph - N/A   Mostly Cloudy
7:00 PM 71.6 °F 53.6 °F 53% 30.07 in 45.0 mi East 9.2 mph - N/A   Mostly Cloudy
8:00 PM 69.8 °F 55.4 °F 60% 30.09 in 45.0 mi Calm Calm - N/A   Mostly Cloudy
9:00 PM 64.4 °F 53.6 °F 68% 30.09 in 25.0 mi East 3.5 mph - N/A   Mostly Cloudy
10:00 PM 62.6 °F 53.6 °F 72% 30.10 in 25.0 mi East 4.6 mph - N/A   Mostly Cloudy
11:00 PM 60.8 °F 53.6 °F 77% 30.10 in 25.0 mi Variable 2.3 mph - N/A   Scattered Clouds